Location: LDNL
(36.4545°S, 141.6685°E)
Time: 11:58:33
(UTC+10:00)

Oscar 11 - Visible Passes

Search period start: 22 May 2022 00:00
Search period end: 01 June 2022 00:00
Orbit: 611 x 625 km, 97.6° (Epoch: 21 May)

Date Brightness Start Highest point End Pass type
(mag) Time Alt. Az. Time Alt. Az. Time Alt. Az.
22 May 8.8 18:11:16 10° S 18:15:15 34° WSW 18:19:10 10° NW visible
23 May 9.5 18:28:16 10° SSW 18:31:43 23° WSW 18:35:08 10° WNW visible
24 May 9.9 18:45:36 10° SSW 18:48:09 15° WSW 18:50:41 10° WNW visible
27 May 8.1 17:57:58 10° S 18:02:12 48° WSW 18:06:20 10° NNW visible
28 May 9.0 18:14:49 10° S 18:18:41 31° WSW 18:22:29 10° NW visible
29 May 9.6 18:31:52 10° SSW 18:35:07 21° WSW 18:38:20 10° WNW visible
30 May 9.9 18:49:18 10° SW 18:51:31 14° WSW 18:53:43 10° W visible
